Cloud_Cover
60 96 79 99 12 95 100 98 100 97 100 5 100 42 5 100 91 6 17 100 99 5 5 68 44 100 100 26 3 0 0 0 0 0 0 0 2 48 3 0 0 0 0 0 0
100 100 84 97 100 88 55 100 100 100 100 100 100 5 25 84 100 73 5 100 49 10 5 9 7 96 100 80 98 5 0 0 0 0 0 0 0 5 3 3 0 0 0 0 0
52 100 100 100 76 100 100 100 100 100 98 100 100 14 97 48 100 100 23 78 100 78 5 65 24 5 89 100 100 13 0 0 0 0 0 0 0 5 3 5 0 0 0 0 0
59 98 100 100 100 100 100 71 100 100 100 100 100 53 100 14 77 100 100 15 100 52 61 98 6 4 98 97 97 99 1 0 0 0 0 0 0 0 1 0 0 0 0 0 0
100 46 87 100 100 100 100 98 100 100 100 100 100 100 95 34 17 100 100 100 100 100 100 100 92 63 100 100 79 12 10 6 4 0 0 0 0 0 0 0 0 0 0 0 0
100 100 39 30 100 100 100 100 62 98 100 100 100 100 100 87 49 66 93 100 100 100 100 100 100 10 100 29 61 83 5 4 5 0 0 0 0 0 0 0 0 0 0 0 0
100 100 100 99 48 100 100 89 55 33 100 100 100 100 100 100 98 99 77 100 100 100 100 100 94 100 100 94 29 54 11 5 5 0 0 0 0 0 0 0 0 0 0 0 0
100 100 100 100 90 94 100 100 96 64 99 100 100 100 100 100 100 23 86 100 46 100 100 75 100 100 100 100 100 5 5 5 11 0 3 0 0 0 0 0 0 0 0 0 0
100 100 100 100 100 98 100 100 8 97 77 100 100 100 100 100 99 92 100 100 100 98 100 98 100 100 100 100 79 58 25 42 76 5 5 2 0 0 0 0 0 0 0 0 0
100 100 100 100 100 100 100 99 100 48 27 92 100 100 100 100 100 100 77 76 93 100 100 99 100 100 100 100 91 18 100 100 100 47 89 13 4 1 3 0 0 0 0 0 0
100 100 100 100 100 100 100 100 100 30 6 100 82 83 100 100 100 100 100 72 85 98 100 99 100 96 100 100 100 100 100 100 93 6 78 100 12 5 0 0 0 0 0 0 0
100 100 100 100 100 100 100 100 100 90 99 100 97 97 100 100 100 100 100 100 100 100 72 95 98 35 100 99 100 100 100 97 100 100 100 98 8 95 0 5 5 1 0 0 0
100 100 100 100 100 100 100 100 100 100 60 100 93 89 100 100 100 97 97 100 100 100 100 100 100 69 39 50 100 100 100 100 100 100 100 94 93 100 7 5 5 5 2 0 0
100 100 100 100 100 100 100 100 100 100 94 73 60 36 98 97 78 100 100 100 100 100 81 100 100 100 91 98 29 100 100 100 100 100 100 66 100 14 90 27 30 5 5 3 0
100 100 100 100 100 100 100 100 100 100 100 72 39 92 82 92 100 100 100 22 21 100 98 100 100 99 100 100 58 100 100 100 90 79 97 46 93 38 94 30 59 17 5 6 2
100 100 100 100 100 100 100 100 100 100 54 0 4 6 100 18 100 100 37 32 60 46 89 100 100 100 100 44 29 100 100 100 100 60 94 48 23 100 91 18 66 28 5 15 1
100 100 100 100 100 100 100 100 100 100 3 2 1 98 89 100 100 100 90 100 100 98 100 100 98 100 42 71 94 99 83 100 100 100 99 100 100 100 100 5 13 81 5 4 4
19 100 100 100 100 100 100 100 100 87 20 98 82 100 100 82 85 100 85 86 99 90 100 100 100 100 100 68 100 67 100 100 100 100 100 100 100 100 99 12 9 100 7 4 2
1 5 52 100 100 100 100 100 100 100 91 100 100 46 25 92 8 97 100 10 98 100 100 100 100 100 100 100 100 95 33 100 100 100 100 100 100 100 96 6 5 5 5 5 5
75 88 4 0 48 100 100 100 100 100 99 100 100 100 100 100 100 100 100 95 100 100 100 100 100 100 100 100 52 46 100 75 100 100 100 100 89 89 100 100 8 5 5 10 52
84 58 5 0 6 100 100 100 100 100 100 100 100 100 97 100 100 100 96 100 100 100 100 100 100 100 100 100 100 66 100 96 100 100 100 100 79 100 100 100 100 73 5 5 66
83 95 5 1 100 68 100 100 100 100 100 100 100 100 100 100 100 100 100 100 100 100 100 100 100 58 100 100 100 69 100 100 100 100 88 41 100 100 100 100 100 89 99 99 100
100 45 4 100 94 88 28 100 69 98 100 100 100 100 100 100 100 100 100 100 100 100 100 100 100 97 94 100 100 100 100 100 100 99 84 90 100 100 100 100 100 99 50 81 100
100 67 45 6 4 86 46 100 99 5 98 100 100 100 100 100 100 100 100 100 100 100 100 100 100 83 53 100 100 100 100 100 98 100 78 91 100 100 100 100 100 81 9 76 43
100 100 25 75 49 5 92 100 100 95 24 75 100 100 100 100 100 100 100 100 100 100 100 100 100 100 100 100 100 100 100 97 79 79 9 62 98 100 100 100 81 10 6 100 83
100 93 7 5 4 93 42 100 100 46 8 9 52 100 100 100 100 100 100 100 100 100 100 100 100 100 100 100 100 100 100 100 73 74 8 62 100 100 100 100 100 70 100 100 100
100 18 68 21 7 75 70 4 65 99 40 22 81 100 100 100 100 100 100 100 100 100 100 100 100 100 100 100 100 99 100 100 100 100 87 8 17 59 100 100 73 73 100 100 100